Location: Armidale
(30.5016°S, 151.6662°E)
Time: 22:51:08
(UTC+10:00)

Hubble Space Telescope - Pass Details

Date: 04 August 2020
Orbit: 536 x 540 km, 28.5° (Epoch: 20 September)

Event Time Altitude Azimuth Distance (km) Brightness Sun altitude
Rises 19:19:08 0° 294° (WNW) 2,674 5.5 -25.4°
Reaches altitude 10° 19:21:27 10° 300° (WNW) 1,785 4.3 -25.9°
Enters shadow 19:24:11 34° 328° (NNW) 888 2.1 -26.5°
